Regional Weather Roundup
Issued by NWS Charleston, SC

Current Version | Previous Version | Graphics & Text | Print | Product List | Glossary On
Versions: 1 2 3 4 5 6 7 8 9 10 11 12 13 14 15 16 17 18 19 20 21 22 23 24 25 26 27 28 29 30 31 32 33 34 35 36 37 38 39 40 41 42 43 44 45 46 47 48 49 50
000
ASUS42 KCHS 031626
RWRCHS

REGIONAL WEATHER ROUNDUP
NATIONAL WEATHER SERVICE CHARLESTON SC
1100 AM EST TUE MAR 03 2015

NOTE: "FAIR" INDICATES FEW OR NO CLOUDS BELOW 12,000 FEET WITH NO
SIGNIFICANT WEATHER AND/OR OBSTRUCTIONS TO VISIBILITY.

NOT ALL STATIONS ARE QUALITY CONTROLLED BY THE NATIONAL
WEATHER SERVICE. USE DATA WITH CAUTION...ESPECIALLY
DEWPOINT OBSERVATIONS.

SCZ027-030-031-034>040-042>050-031700-
...SOUTHEAST SOUTH CAROLINA...

CITY           SKY/WX    TMP DP  RH WIND       PRES   REMARKS
N CHARLESTON   CLOUDY    57  48  72 CALM      30.29F
WATERFRONT PRK   N/A     54 N/A N/A NE7         N/A
MOUNT PLEASANT CLOUDY    57  52  82 CALM      30.27F
PINOPOLIS      NOT AVBL
MONCKS CORNER  CLOUDY    54  45  71 E3        30.28F
SUMMERVILLE    CLOUDY    54  50  87 CALM      30.28F
BEAUFORT MCAS  CLOUDY    60  56  86 E6        30.26F
BEAUFORT ARPT  PTSUNNY   63  55  77 E8        30.25F
HILTON HEAD IS CLOUDY    55  52  88 NE6       30.28F
WALTERBORO     CLOUDY    57  54  88 E6        30.27F
ALLENDALE      CLOUDY    57  57 100 E5        30.24F FOG

...SOUTHERN MIDLANDS AND PEE DEE...

CITY           SKY/WX    TMP DP  RH WIND       PRES   REMARKS
GEORGETOWN     NOT AVBL
KINGSTREE      NOT AVBL
ORANGEBURG     LGT RAIN  49  46  90 E8        30.29S FOG
BARNWELL       DRIZZLE   55  55 100 E8        30.27S
AIKEN          DRIZZLE   54  54 100 E9        30.29F
MANNING        CLOUDY   N/A N/A N/A CALM      30.30F FOG
COLUMBIA       CLOUDY    49  49 100 E12       30.29F FOG
SUMTER         CLOUDY    44  40  85 NE8       30.30F FOG
FLORENCE       CLOUDY    45  29  53 NE8       30.32F
MYRTLE BEACH   CLOUDY    48  37  66 NE13      30.33F
N MYRTLE BEACH CLOUDY    48  36  63 NE8       30.31F

$$

GAZ063-065-086>088-099>101-113>116-118-119-134>141-150-031700-
...SOUTHEAST GEORGIA...

CITY           SKY/WX    TMP DP  RH WIND       PRES   REMARKS
SAVANNAH ARPT  CLOUDY    61  55  82 E9        30.26F HAZE
HUNTER AAF     PTSUNNY   63  57  82 E8        30.23F
FORT STEWART   CLOUDY    66  59  78 SE8       30.23F
STATESBORO     CLOUDY    62  62 100 E3        30.24F FOG
SYLVANIA       CLOUDY    60  60 100 E6        30.24F FOG
CLAXTON        FAIR      70  63  78 SE5       30.22F

...CSRA...CENTRAL AND FAR SOUTHEAST GEORGIA...

CITY           SKY/WX    TMP DP  RH WIND       PRES   REMARKS
THOMSON        CLOUDY    59  59 100 CALM      30.30R
AUGUSTA-BUSH   CLOUDY    56  55  97 E6        30.25F FOG
AUGUSTA-DANIEL CLOUDY    57  55  93 E6        30.25F FOG
SWAINSBORO     NOT AVBL
VIDALIA        PTSUNNY   70  63  78 S5        30.23F
EASTMAN        PTSUNNY   74  65  73 S5        30.24F
HAZLEHURST     FAIR      74  65  74 S7        30.21F
ALMA           SUNNY     73  63  70 SE6       30.22F
WAYCROSS       MOSUNNY   77  67  71 SE8       30.23F
JESUP          FAIR      75  66  73 S6        30.23F
BAXLEY         FAIR      73  64  73 S6        30.22F
BRUNSWICK      CLOUDY    72  63  73 SE5       30.26S
SAINT SIMONS   PTSUNNY   67  61  81 SE7       30.26S

$$

SCZ027-028-034-036>038-045-046-048>050-GAZ119-141-031700-
...LAKE AND SUPPLEMENTAL COASTAL OBSERVATIONS...

STATION/POSITION TIME  TEMP    WIND        PRES    WAVE   SWELL
                       AIR SEA DIR/SP/G            HT/PER HT/PER/DIR
                 (UTC) (F)     (DEG/KT/KT) (MB)    (FT/S) (FT/S/D)
UPR LAKE MARION  NOT AVBL
WINYAH BAY       1545   47      50/ 13     1025.0S
LAKE MURRAY      1500   48      70/  5/  9 1025.4R
ACE BASIN NERRS  NOT AVBL
FORT PULASKI     1600   51 49              1025.5
SAPELO ISLAND    1600   69     160/  2     1024.0S

$$

ANZ835-935-AMZ111-154-330-350-352-354-370-450-454-472-031700-
...C-MAN AND BUOY OBSERVATIONS...

STATION/POSITION TIME  TEMP    WIND        PRES    WAVE   SWELL
                       AIR SEA DIR/SP/G            HT/PER HT/PER/DIR
                 (UTC) (F)     (DEG/KT/KT) (MB)    (FT/S) (FT/S/D)
BUOY 41004       1550   68 69   90/ 14/ 16 1024.0F   6/ 8   5/ 8
BUOY 41008       1550   56 53  350/  8/ 12 1024.7R   2/10   2/110/10
FOLLY BEACH CMAN 1600   51      30/  8/ 10 1025.6F
CAPERS NEARSHORE NOT AVBL
FRIPP NEARSHORE  1500   50      60/ 14/ 17 1024.6R


STATION/POSITION TIME  TEMP    WIND        PRES    WAVE   SWELL
                       AIR SEA DIR/SP/G            HT/PER HT/PER/DIR
                 (UTC) (F)     (DEG/KT/KT) (MB)    (FT/S) (FT/S/D)
5E ST. MARYS GA  1521      54                N/A     2/ 9
FRYING PAN BUOY  1550   62 60  120/ 14/ 17 1026.3F   6/ 6   3/140/ 9
BUOY 41025       NOT AVBL
CAPE LOOKOUT NC  1600   43      40/ 15/ 17 1027.8F
BUOY 41002       1550   65 73   90/ 16/ 19 1027.2F   7/ 7
BUOY 41010       1520   73 75   80/ 10/ 12 1024.9S
ST AUGUSTINE FL  1600   64     170/  3/  4 1025.3R


$$


USA.gov is the U.S. government's official web portal to all federal, state and local government web resources and services.